Regional Weather Roundup
Issued by NWS Newport/Morehead, NC

Current Version | Previous Version | Text Only | Print | Product List | Glossary On
Versions: 1 2 3 4 5 6 7 8 9 10 11 12 13 14 15 16 17 18 19 20 21 22 23 24 25 26 27 28 29 30 31 32 33 34 35 36 37 38 39 40 41 42 43 44 45 46 47 48 49 50
000 ASUS42 KMHX 261913 RWRMHX WEATHER ROUNDUP FOR EASTERN NORTH CAROLINA NATIONAL WEATHER SERVICE NEWPORT/MOREHEAD CITY NC 200 PM EST SUN FEB 26 2017 NOTE: "FAIR" INDICATES FEW OR NO CLOUDS BELOW 12,000 FEET WITH NO SIGNIFICANT WEATHER AND/OR OBSTRUCTIONS TO VISIBILITY NCZ015>017-031-032-045>047-102-103-262000- NORTH COAST CITY SKY/WX TMP DP RH WIND PRES REMARKS EDENTON SUNNY 54 24 30 W3 30.15F ELIZABETH CITY SUNNY 55 24 30 NW10 30.14F KITTY HAWK NOT AVBL MANTEO SUNNY 51 27 39 NW6 30.15F $$ NCZ045>047-081-094-103-104-262000- CENTRAL COAST CITY SKY/WX TMP DP RH WIND PRES REMARKS FRISCO SUNNY 56 34 43 VRB3 30.14F $$ NCZ095-097-098-100-101-262000- SOUTHERN COAST CITY SKY/WX TMP DP RH WIND PRES REMARKS BEAUFORT SUNNY 59 24 26 VRB3 30.15F CEDAR ISLAND NOT AVBL JACKSONVILLE SUNNY 59 16 18 NW10 30.16S PINEY ISLAND CLEAR N/A N/A N/A NE7 30.15F WILMINGTON SUNNY 60 20 21 W13 30.17S $$ NCZ011>013-027>030-043-044-078>080-089-090>093-098-262000- COASTAL PLAIN CITY SKY/WX TMP DP RH WIND PRES REMARKS AHOSKIE N/A 51 21 30 SW3 30.15F CLINTON SUNNY 56 23 27 NW10 30.18F ELIZABETHTOWN SUNNY 57 20 24 SW7 30.18S GOLDSBORO SUNNY 57 14 18 W9 30.14F GREENVILLE SUNNY 54 19 26 CALM 30.16F HAVELOCK NOT AVBL KENANSVILLE SUNNY 55 18 22 W8 30.17F KINSTON SUNNY 57 16 19 W7 30.17F NEW BERN SUNNY 58 23 26 NW12 30.16F RICHLANDS SUNNY 58 20 22 VRB7G16 30.17F ROCKY MOUNT SUNNY 54 19 25 W8G17 30.16F WASHINGTON SUNNY 55 20 26 W6 30.16S WHITEVILLE SUNNY 57 20 24 W5 30.19R $$ AMZ130-135-150-152-154-156-158-170-250-252-270-ANZ085-086-088-633-658-670-262000- MARINE OBSERVATIONS STATION/POSITION TIME TEMP WIND PRES WAVE SWELL AIR SEA DIR/SP/G HT/PER HT/PER (UTC) (F) (DEG/KT/KT) (MB) (FT/S) (FT/S) CHESAPEAKE LIGHT NOT AVBL 64 E VA BEACH 1850 42 51 340/ 12/ 16 1021.0 5/10 3/10 DUCK 1848 44 49 50/ 8/ 10 1020.6 2 E DUCK 1900 50 N/A 4/10 2/11 OREGON INLET 1842 46 57 30/ 9/ 12 1021.1 13E OREGON INLT NOT AVBL HATTERAS CG 1848 51 62 330/ 6/ 8 1020.5 DIAMOND BUOY 1850 51 72 360/ 8/ 12 1021.1 5/ 8 5/ 8 CAPE LOOKOUT 1900 55 250/ 5/ 8 1021.0 BEAUFORT LAB 1848 54 62 170/ 9/ 11 1019.9 30 SE NEW RVR IN 1808 51 320/ 8/ 12 1021.9 30 SE NEW RVR IN 1843 65 N/A 3/ 9 2/11 27 SE WRIGHTSVLE 1808 52 61 330/ 8/ 12 1021.5 5 SE WRIGHTSVLE 1808 54 59 310/ 4/ 8 1021.6 225 S CAPE HAT 1850 68 71 340/ 14/ 17 1019.4 6/ 8 5/ 8 41 SE CHARLESTON 1850 57 69 340/ 4/ 6 1022.6 3/ 9 3/ 9 $$

USA.gov is the U.S. government's official web portal to all federal, state and local government web resources and services.